Weather in Shalgovaara

Russia / Republic of Karelia     63°30′39″N   33°15′09″E
temp.,
°C
wind,
m/s
gust,
m/s
humid.,
%
clouds,
%
prec.,
mm/h
press.,
hPa
HPBL,
m
3 march, wed
wed300:00−6w310910 0.0 1010268
03:00−6w412931 0.0 1009389
06:00−5wnw4139266 0.0 1006483
09:00−5w4119065 0.0 1005349
12:00−3w499485 0.3 1003533
15:00−2w598992 0.9 1000777
18:00−3wsw2497100 0.7 996171
21:00−3n51095100 4.1 996586
4 march, thu
thu400:00−6nnw3896100 0.3 997350
03:00−10nnw259793 0.4 1000102
06:00−11nw379777 0.0 1000157
09:00−10nw399583 0.0 1001270
12:00−7nw478983 0.0 1001492
15:00−6nw478890 0.1 1001625
18:00−8nw3795100 0.1 1001390
21:00−8nw4109395 0.3 1002542
5 march, fri
fri500:00−9nnw399497 0.1 1003415
03:00−13n379596 0.3 1005313
06:00−18nnw359628 0.0 100799
09:00−15nw258939 0.0 1008142
12:00−11nw3689100 0.1 1009520
15:00−8nnw3586100 0.1 1011619
18:00−10nw2496100 0.1 1011111
21:00−10wnw1297100 0.5 101263
6 march, sat
sat600:00−13wnw229768 0.0 101331
03:00−14w239655 0.0 101339
06:00−15w24960 0.0 101265
09:00−15wsw26960 0.0 1010159
12:00−10sw359026 0.0 1008265
15:00−7ssw488330 0.0 1003601
18:00−8s51187100 0.0 998653
21:00−8sse61392100 0.4 991840
7 march, sun
sun700:00−7se71393100 1.0 985868
03:00−8ese71393100 2.2 982809
06:00−9ene71393100 1.4 982799
09:00−11ne71392100 2.6 986736
12:00−11ne71391100 0.5 992762
15:00−10ne71391100 0.9 997869
18:00−14nne71491100 0.3 1001628
21:00−17nne61493100 0.4 1006502